Change the Weather History Date:

Thursday, February 14, 2013

  Actual Average Record
Temperature  
Mean Temperature 59 °F -  
Max Temperature 73 °F 70 °F 84 °F (1957)
Min Temperature 45 °F 46 °F 30 °F (1966)
Degree Days  
Heating Degree Days 6    
Growing Degree Days 9 (Base 50)    
Moisture  
Dew Point 25 °F    
Average Humidity 28    
Maximum Humidity 48    
Minimum Humidity 15    
Precipitation  
Precipitation 0.00 in - - ()
Sea Level Pressure  
Sea Level Pressure 30.12 in    
Wind  
Wind Speed 10 mph (NNW)    
Max Wind Speed 25 mph    
Max Gust Speed 37 mph    
Visibility 10 miles    
Events      
Averages and records for this station are not official NWS values.
T = Trace of Precipitation, MM = Missing Value Source: NWS Daily Summary

Daily Weather History Graph

Daily Weather History Graph

Search for Another Location

Airport or City:

Trip Planner

Search our weather history database for the weather conditions in past years. The results will help you decide how hot, cold, wet, or windy it might be!

Date:

Astronomy

Feb. 14, 2013 Rise Set
Actual Time 6:24 AM PST 5:20 PM PST
Civil Twilight 5:58 AM PST 5:46 PM PST
Nautical Twilight 5:29 AM PST 6:16 PM PST
Astronomical Twilight 5:00 AM PST 6:45 PM PST
Moon 8:42 AM PST (2/14) 10:12 PM PST (2/14)
Length of Visible Light 11h 47m
Length of Day
10h 56m
Waxing Crescent, 22% of the Moon is Illuminated
Feb 14
Waxing Crescent
Feb 17
First Quarter
Feb 25
Full
Mar 4
Last Quarter
Mar 11
New

Hourly Weather History & Observations

Time (PST) Temp. Windchill Dew Point Humidity Pressure Visibility Wind Dir Wind Speed Gust Speed Precip Events Conditions
12:56 AM 48.9 °F - 25.0 °F 39% 30.10 in 10.0 mi West 3.5 mph - N/A   Clear
1:56 AM 46.9 °F - 26.1 °F 44% 30.10 in 10.0 mi West 4.6 mph - N/A   Clear
2:56 AM 46.9 °F - 26.1 °F 44% 30.10 in 10.0 mi West 4.6 mph - N/A   Clear
3:56 AM 46.0 °F 43.1 °F 26.1 °F 46% 30.10 in 10.0 mi SW 5.8 mph - N/A   Clear
4:56 AM 45.0 °F 43.5 °F 26.1 °F 48% 30.11 in 10.0 mi SW 3.5 mph - N/A   Clear
5:56 AM 46.0 °F 41.4 °F 26.1 °F 46% 30.12 in 10.0 mi WNW 9.2 mph - N/A   Clear
6:56 AM 51.1 °F - 26.1 °F 38% 30.14 in 10.0 mi North 4.6 mph - N/A   Clear
7:56 AM 55.9 °F - 26.1 °F 32% 30.16 in 10.0 mi North 8.1 mph - N/A   Clear
8:56 AM 60.1 °F - 27.0 °F 28% 30.16 in 10.0 mi North 13.8 mph - N/A   Clear
9:56 AM 63.0 °F - 28.0 °F 27% 30.15 in 10.0 mi North 13.8 mph - N/A   Clear
10:56 AM 69.1 °F - 27.0 °F 21% 30.14 in 10.0 mi NNE 20.7 mph 27.6 mph N/A   Clear
11:56 AM 70.0 °F - 27.0 °F 20% 30.13 in 10.0 mi North 20.7 mph 28.8 mph N/A   Clear
12:56 PM 72.0 °F - 25.0 °F 17% 30.10 in 10.0 mi NNE 21.9 mph 27.6 mph N/A   Unknown
1:56 PM 73.9 °F - 25.0 °F 16% 30.07 in 10.0 mi North 23.0 mph - N/A   Clear
2:56 PM 73.0 °F - 21.9 °F 15% 30.06 in 10.0 mi NNE 25.3 mph 36.8 mph N/A   Clear
3:56 PM 72.0 °F - 24.1 °F 17% 30.06 in 10.0 mi North 25.3 mph 32.2 mph N/A   Clear
4:56 PM 70.0 °F - 23.0 °F 17% 30.07 in 10.0 mi North 18.4 mph 27.6 mph N/A   Clear
5:56 PM 66.9 °F - 23.0 °F 19% 30.09 in 10.0 mi North 13.8 mph - N/A   Clear
6:56 PM 64.9 °F - 23.0 °F 20% 30.09 in 10.0 mi North 15.0 mph - N/A   Clear
7:56 PM 64.9 °F - 23.0 °F 20% 30.10 in 10.0 mi North 16.1 mph - N/A   Clear
8:56 PM 62.1 °F - 21.9 °F 21% 30.14 in 10.0 mi North 12.7 mph - N/A   Clear
9:56 PM 62.1 °F - 19.9 °F 20% 30.14 in 10.0 mi North 12.7 mph - N/A   Clear
10:56 PM 61.0 °F - 21.0 °F 21% 30.16 in 10.0 mi North 13.8 mph - N/A   Clear
11:56 PM 57.9 °F - 24.1 °F 27% 30.18 in 10.0 mi North 13.8 mph - N/A   Clear